Tracking 19572 objects as of 24-Feb-2019
HD Live streaming from Space Station
objects crossing your sky now

FLOCK 3P 61

Track FLOCK 3P 61 now!
10-day predictions
FLOCK 3P 61 is classified as:


NORAD ID: 42009
Int'l Code: 2017-008BP
Perigee: 492.7 km
Apogee: 502.7 km
Inclination: 97.4 °
Period: 94.4 minutes
Semi major axis: 6868 km
RCS: Unknown
Launch date: February 15, 2017
Source: United States (US)
Launch site: SRIHARIKOTA (SRI)
aabbcc
Your satellite tracking list
Your tracking list is empty




NASA's NSSDC Master Catalog

Two Line Element Set (TLE):
1 42009U 17008BP  19054.12877269  .00000918  00000-0  39555-4 0  9991
2 42009  97.4205 122.3367 0007257 198.5797 161.5177 15.25080251112321
Source of the keplerian elements: AFSPC